sat.trackr.live / text

‹ back to catalog

STARLINK-31316

NORAD 59090 · 2024-041S

PAYLOAD ACTIVE UNKNOWN

§ Identity

Operator
Country
US
Launch date
2024-02-29
Launch site
AFETR
Launch vehicle
Mass (kg)
RCS (m²)

Purposes: comms

External: N2YO · Heavens-Above · Gunter

§ Orbital elements

Epoch: 2026-09-20T16:13:14.450880Z

Period
94.27 min
Inclination
43.0026°
Eccentricity
0.0001452
Mean motion
15.27579613 rev/d
Perigee alt
482.1 km
Apogee alt
484.0 km
Semi-major
6,861.2 km
B*
3.0605e-5
RAAN
242.7085°
Arg perigee
260.7847°
Mean anomaly
99.2840°
Rev number
14,457

§ Raw data

STARLINK-313161 59090U 24041S   26263.67586170  .00000580  00000+0  30605-4 0  99932 59090  43.0026 242.7085 0001452 260.7847  99.2840 15.27579613144573

JSON: /api/v1/satellites/59090 · /tle

For live sub-satellite position, see the globe view (requires WebGL).

§ Visibility from observer

Set your observer location to see the next 7 days of passes ≥ 10°. The values pass through the URL so the page stays shareable.

No JS? Fill the form by hand. The geolocation button needs JavaScript.